Wind_Speed
9 9 9 9 9 8 7 5 5 5 5 5 4 4 4 5 5 3 7 3 9 8 7 7 7 6 6 7 7 8 9 10 9
10 10 11 10 10 9 7 6 5 5 5 4 2 3 5 7 8 4 3 4 9 8 8 9 9 8 7 7 8 10 9 9 10
10 11 11 10 10 9 8 7 6 5 3 2 2 3 4 4 8 5 2 5 10 9 9 9 13 12 12 7 8 10 11 11 11
10 9 10 9 9 7 7 5 5 4 4 3 3 5 6 6 5 2 4 7 10 10 10 11 10 11 11 10 12 14 11 7 9
9 8 9 8 7 6 6 5 5 4 4 4 4 4 5 6 4 2 5 6 8 8 8 8 10 11 11 12 13 13 12 12 12
8 9 7 7 7 6 6 5 4 4 4 6 6 7 7 4 5 6 6 6 7 7 8 9 10 10 11 11 12 12 12 12 13
13 10 7 7 6 6 5 5 6 3 2 6 4 5 5 6 4 4 7 6 6 6 8 9 9 10 10 11 12 12 12 12 12
14 8 9 7 6 7 5 4 6 3 4 2 4 3 3 2 6 6 8 5 6 7 8 9 10 10 10 10 11 12 11 12 12
15 10 8 8 4 8 2 9 4 3 2 2 2 3 3 3 7 6 6 4 6 7 9 9 10 10 10 10 10 10 11 12 13
14 14 11 10 8 8 8 6 4 4 2 2 5 5 5 4 4 6 4 3 6 7 7 8 9 9 10 10 11 11 11 11 14
16 13 12 13 13 11 10 7 4 2 2 1 3 4 3 3 3 6 4 3 2 1 5 7 8 9 10 11 11 11 11 12 14
16 15 16 14 14 11 6 4 3 2 2 2 3 5 6 4 3 2 2 2 4 5 6 7 8 10 11 12 12 12 12 13 14
20 20 15 12 9 12 11 5 0 2 4 5 3 5 6 2 2 4 2 1 2 5 8 10 10 10 12 12 13 12 12 13 14
21 20 19 13 11 9 7 9 3 2 5 5 4 6 5 2 4 4 6 6 6 5 7 10 11 11 13 13 14 12 13 14 15
18 18 17 16 13 10 6 5 5 3 7 5 4 5 3 4 4 5 4 7 8 8 8 8 13 13 11 14 13 13 15 15 15
22 21 20 16 14 12 9 5 4 4 7 4 2 5 2 3 5 8 7 6 6 6 6 12 17 16 14 14 13 15 14 15 17
23 24 22 19 18 13 8 8 3 2 7 3 2 2 1 5 7 9 8 8 8 8 11 17 20 17 16 21 14 14 16 18 19
24 24 23 19 15 12 8 9 7 4 2 4 3 2 1 4 1 9 8 5 8 11 17 16 18 20 21 21 17 17 17 19 20
24 22 19 16 14 13 10 8 8 6 5 3 4 2 1 1 3 2 2 7 9 15 15 23 21 20 23 23 20 19 19 20 26
24 22 21 20 16 14 12 9 8 7 5 4 2 1 2 4 3 4 4 18 23 22 17 19 24 24 22 19 21 16 19 23 27
Wind_Direction
120 112 111 118 127 125 118 106 96 91 82 75 63 58 70 42 30 57 45 41 4 21 11 1 348 317 305 300 298 290 290 290 298
120 114 112 112 112 116 121 120 119 118 100 86 64 41 60 68 74 62 29 9 3 8 1 353 327 309 309 293 288 291 288 279 288
127 121 119 116 113 111 110 111 119 125 117 96 57 45 41 57 58 27 3 14 25 13 21 30 33 32 22 336 296 291 288 291 281
137 131 127 124 120 118 119 121 122 115 95 74 51 44 48 64 30 7 351 4 33 28 21 34 31 29 24 24 33 35 18 320 301
146 145 141 135 133 130 127 123 115 97 73 50 40 44 38 23 75 355 17 15 34 29 33 37 38 44 38 34 33 33 32 29 27
156 167 163 151 143 133 124 111 101 108 86 61 47 46 34 30 356 343 339 1 29 42 54 60 51 44 43 40 34 26 23 18 14
179 176 173 163 152 138 124 107 104 39 266 59 35 22 17 36 324 310 330 352 27 63 73 59 46 42 42 34 23 15 13 14 13
175 178 178 164 166 151 112 100 88 113 107 37 22 18 354 3 330 317 322 39 65 80 66 59 48 39 33 29 19 15 15 10 9
191 192 171 170 145 160 115 143 147 106 33 322 303 313 334 338 328 319 319 28 96 85 70 53 42 36 25 20 11 7 2 356 354
186 185 174 167 166 167 173 149 160 187 181 4 334 335 320 321 312 314 308 152 105 82 58 47 38 30 16 8 360 355 351 345 345
187 174 173 168 175 175 165 171 184 197 255 273 314 319 321 328 272 298 305 290 219 62 46 31 21 10 1 358 352 346 345 337 339
179 178 179 190 181 164 157 165 174 216 303 322 304 300 287 295 287 250 320 1 334 325 329 338 343 337 350 349 346 341 337 336 334
186 183 172 176 159 148 152 153 236 306 333 321 331 301 296 284 222 198 214 94 22 331 331 330 350 341 343 341 338 335 337 337 333
189 185 173 167 165 159 151 156 169 335 324 331 315 285 319 243 196 202 234 261 253 279 302 326 340 335 333 334 331 330 334 334 332
187 182 164 170 166 150 152 136 105 13 332 320 293 272 286 215 212 229 242 267 291 310 318 322 323 323 326 328 324 323 326 327 327
186 169 166 167 151 142 151 113 93 8 358 327 312 248 263 229 220 239 242 268 307 296 298 307 317 319 315 321 312 315 319 321 321
185 174 168 163 159 151 145 129 129 47 22 6 310 338 227 233 239 232 219 267 273 280 294 310 316 313 308 316 308 312 316 315 317
178 173 170 168 164 159 161 152 161 154 68 47 98 24 273 324 316 219 258 268 287 283 316 309 308 304 310 316 308 309 312 311 313
174 174 169 164 160 152 138 131 142 166 164 123 57 85 116 112 329 357 261 314 323 320 305 307 302 302 305 304 297 303 309 307 312
173 172 165 159 158 156 151 150 151 147 150 141 132 170 227 238 199 280 292 298 302 305 311 301 303 300 306 289 294 293 299 302 306
Height
808 809 809 810 812 813 815 816 818 818 820 821 821 821 820 820 821 822 823 823 823 822 821 821 821 821 821 821 822 822 822 822 822
809 809 809 811 813 814 814 816 818 819 820 821 821 821 821 821 822 823 822 821 822 822 821 821 821 820 819 819 819 820 820 820 819
809 810 811 812 814 814 816 817 818 819 820 820 821 821 821 821 821 822 822 821 821 821 821 821 820 819 819 817 817 818 818 818 818
809 812 813 813 814 816 816 817 819 819 819 820 821 821 821 821 821 821 820 820 820 821 821 820 821 820 818 818 817 816 816 816 816
809 811 813 814 815 816 817 817 818 819 820 821 821 821 821 821 821 820 820 820 820 820 820 820 820 820 819 817 817 817 816 816 816
809 810 813 814 815 816 817 817 818 819 820 820 821 821 821 821 820 820 819 820 820 820 819 819 818 819 818 818 817 818 816 816 815
808 810 812 814 815 815 817 817 818 819 820 821 821 821 821 820 819 819 819 819 819 818 818 818 818 818 818 818 818 817 817 815 815
807 809 810 812 814 815 816 817 818 819 820 821 821 821 820 820 818 818 818 818 819 818 818 817 817 818 817 816 816 816 816 816 814
806 808 809 810 813 814 816 817 817 818 820 820 819 819 819 819 818 817 817 818 818 818 817 817 816 816 818 816 816 815 814 814 813
805 807 809 810 813 814 815 816 816 817 818 818 818 818 818 818 817 816 817 817 818 817 817 817 816 816 817 815 815 814 812 812 812
803 805 808 808 809 812 814 815 816 816 817 816 817 817 817 816 817 816 816 817 817 816 816 816 816 816 816 814 814 813 811 810 809
801 804 805 807 806 808 813 815 815 816 815 815 816 815 815 816 816 816 816 816 817 817 816 815 815 815 814 813 812 811 809 808 807
797 800 802 807 810 807 808 813 815 815 814 814 814 813 814 814 815 816 816 816 817 817 816 815 815 814 813 812 811 810 807 806 805
794 797 800 804 807 808 807 809 813 815 815 813 812 812 812 813 814 815 816 816 817 817 816 815 814 814 813 811 810 809 806 804 803
793 796 800 802 804 807 810 811 809 814 814 812 811 810 810 812 812 814 815 815 815 816 815 814 813 812 812 810 809 807 804 803 801
790 794 796 800 801 805 806 811 810 813 814 812 810 809 809 810 811 813 813 814 813 814 813 812 811 811 810 808 807 805 803 800 798
789 791 793 797 800 802 806 804 812 813 814 813 811 812 810 809 810 811 811 811 812 812 811 810 809 808 807 805 804 802 800 798 796
786 789 792 796 798 801 802 802 808 811 814 812 810 813 814 811 808 809 809 809 810 809 809 808 807 806 804 801 800 799 797 795 793
785 788 792 795 797 800 802 804 807 811 812 811 810 811 812 815 815 808 808 807 808 807 807 806 804 802 800 798 797 795 793 791 789
783 787 790 793 796 798 800 805 807 808 810 810 811 812 811 812 814 812 806 805 805 805 804 803 801 799 796 794 792 791 790 788 786